When you browse on this site, cookies collect data to enhance your experience and personalize the content and advertising you see.
Visit our Privacy Policy to learn more. By continuing to use the site, you agree to this use of cookies and data.
EN

Hourly Weather Gogolewko

Today, 19 September, Saturday

Time Temperature Precipitation Wind Pressure Humidity
00:00 +10°C° 0 mm 0 mps 764 mmHg 59%
01:00 +10°C° 0 mm 0 mps 764 mmHg 60%
02:00 +10°C° 0 mm 0 mps 764 mmHg 61%
03:00 +10°C° 0 mm 0 mps 764 mmHg 62%
04:00 +9°C° 0 mm 0 mps 763 mmHg 64%
05:00 +10°C° 0 mm 0 mps 763 mmHg 64%
06:00 +11°C° 0 mm 1 mps 763 mmHg 63%
07:00 +12°C° 0 mm 1 mps 763 mmHg 62%
08:00 +14°C° 0 mm 1 mps 763 mmHg 57%
09:00 +15°C° 0 mm 1 mps 763 mmHg 52%
10:00 +18°C° 0 mm 1 mps 763 mmHg 47%
11:00 +19°C° 0 mm 1 mps 763 mmHg 44%
12:00 +20°C° 0 mm 1 mps 762 mmHg 40%
13:00 +20°C° 0 mm 1 mps 762 mmHg 39%
14:00 +20°C° 0 mm 1 mps 762 mmHg 41%
15:00 +19°C° 0 mm 2 mps 761 mmHg 43%
16:00 +19°C° 0 mm 2 mps 761 mmHg 46%
17:00 +18°C° 0 mm 2 mps 761 mmHg 48%
18:00 +16°C° 0 mm 2 mps 760 mmHg 51%
19:00 +15°C° 0 mm 2 mps 760 mmHg 53%
20:00 +14°C° 0 mm 2 mps 760 mmHg 54%
21:00 +14°C° 0 mm 2 mps 761 mmHg 55%
22:00 +14°C° 0 mm 2 mps 761 mmHg 55%
23:00 +12°C° 0 mm 3 mps 761 mmHg 56%

Tomorrow, 20 September, Sunday

Time Temperature Precipitation Wind Pressure Humidity
00:00 +12°C° 0 mm 3 mps 760 mmHg 56%
01:00 +12°C° 0 mm 3 mps 760 mmHg 57%
02:00 +12°C° 0 mm 3 mps 760 mmHg 57%
03:00 +12°C° 0 mm 3 mps 760 mmHg 58%
04:00 +11°C° 0 mm 3 mps 760 mmHg 58%
05:00 +12°C° 0 mm 3 mps 760 mmHg 60%
06:00 +12°C° 0 mm 3 mps 760 mmHg 61%
07:00 +12°C° 0 mm 3 mps 760 mmHg 62%
08:00 +14°C° 0 mm 3 mps 760 mmHg 58%
09:00 +16°C° 0 mm 3 mps 760 mmHg 55%
10:00 +18°C° 0 mm 4 mps 760 mmHg 51%
11:00 +19°C° 0 mm 4 mps 759 mmHg 49%
12:00 +20°C° 0 mm 4 mps 759 mmHg 47%
13:00 +21°C° 0 mm 4 mps 759 mmHg 44%
14:00 +21°C° 0 mm 4 mps 759 mmHg 45%
15:00 +21°C° 0 mm 4 mps 758 mmHg 46%
16:00 +21°C° 0 mm 3 mps 758 mmHg 48%
17:00 +19°C° 0 mm 3 mps 758 mmHg 52%
18:00 +17°C° 0 mm 3 mps 758 mmHg 56%
19:00 +16°C° 0 mm 3 mps 758 mmHg 60%
20:00 +14°C° 0 mm 3 mps 758 mmHg 60%
21:00 +14°C° 0 mm 3 mps 758 mmHg 61%
22:00 +13°C° 0 mm 3 mps 759 mmHg 62%
23:00 +13°C° 0 mm 3 mps 758 mmHg 64%

Day after tomorrow, 21 September, Monday

Time Temperature Precipitation Wind Pressure Humidity
00:00 +13°C° 0 mm 2 mps 758 mmHg 67%
01:00 +13°C° 0 mm 2 mps 758 mmHg 69%
02:00 +13°C° 0 mm 2 mps 758 mmHg 71%
03:00 +13°C° 0 mm 2 mps 758 mmHg 74%
04:00 +12°C° 0 mm 2 mps 758 mmHg 77%
05:00 +13°C° 0 mm 2 mps 758 mmHg 77%
06:00 +13°C° 0 mm 2 mps 758 mmHg 77%
07:00 +13°C° 0 mm 2 mps 758 mmHg 77%
08:00 +16°C° 0 mm 2 mps 758 mmHg 71%
09:00 +18°C° 0 mm 2 mps 758 mmHg 64%
10:00 +20°C° 0 mm 2 mps 758 mmHg 57%
11:00 +21°C° 0 mm 2 mps 757 mmHg 52%
12:00 +23°C° 0 mm 2 mps 757 mmHg 47%
13:00 +25°C° 0 mm 1 mps 757 mmHg 43%
14:00 +25°C° 0 mm 1 mps 757 mmHg 43%
15:00 +25°C° 0 mm 1 mps 756 mmHg 44%
16:00 +25°C° 0 mm 1 mps 756 mmHg 44%
17:00 +24°C° 0 mm 1 mps 756 mmHg 48%
18:00 +21°C° 0 mm 2 mps 756 mmHg 53%
19:00 +19°C° 0 mm 2 mps 756 mmHg 57%
20:00 +19°C° 0 mm 2 mps 756 mmHg 58%
21:00 +18°C° 0 mm 2 mps 756 mmHg 59%
22:00 +18°C° 0 mm 2 mps 756 mmHg 60%
23:00 +17°C° 0 mm 2 mps 756 mmHg 62%

22 September, Tuesday

Time Temperature Precipitation Wind Pressure Humidity
00:00 +17°C° 0 mm 2 mps 756 mmHg 63%
01:00 +16°C° 0 mm 2 mps 755 mmHg 65%
02:00 +16°C° 0 mm 2 mps 755 mmHg 65%
03:00 +16°C° 0 mm 2 mps 755 mmHg 65%
04:00 +16°C° 0 mm 2 mps 754 mmHg 66%
05:00 +16°C° 0 mm 3 mps 754 mmHg 66%
06:00 +16°C° 0 mm 3 mps 754 mmHg 66%
07:00 +17°C° 0 mm 3 mps 754 mmHg 66%
08:00 +19°C° 0 mm 3 mps 754 mmHg 60%
09:00 +21°C° 0 mm 4 mps 754 mmHg 53%
10:00 +23°C° 0 mm 4 mps 754 mmHg 47%
11:00 +25°C° 0 mm 5 mps 753 mmHg 44%
12:00 +26°C° 0 mm 5 mps 753 mmHg 41%
13:00 +28°C° 0 mm 6 mps 753 mmHg 38%
14:00 +27°C° 0 mm 5 mps 752 mmHg 41%
15:00 +27°C° 0 mm 4 mps 752 mmHg 43%
16:00 +27°C° 0 mm 3 mps 751 mmHg 46%
17:00 +25°C° 0 mm 3 mps 751 mmHg 49%
18:00 +22°C° 0 mm 3 mps 751 mmHg 53%
19:00 +21°C° 0 mm 3 mps 751 mmHg 56%
20:00 +20°C° 0 mm 3 mps 751 mmHg 57%
21:00 +20°C° 0 mm 3 mps 751 mmHg 58%
22:00 +19°C° 0 mm 3 mps 751 mmHg 59%
23:00 +19°C° 0 mm 3 mps 750 mmHg 59%

23 September, Wednesday

Time Temperature Precipitation Wind Pressure Humidity
00:00 +18°C° 0 mm 3 mps 750 mmHg 59%
01:00 +18°C° 0 mm 3 mps 750 mmHg 59%
02:00 +18°C° 0 mm 3 mps 749 mmHg 59%
03:00 +18°C° 0 mm 3 mps 749 mmHg 59%
04:00 +17°C° 0 mm 3 mps 749 mmHg 59%
05:00 +17°C° 0 mm 3 mps 749 mmHg 60%
06:00 +18°C° 0 mm 3 mps 749 mmHg 61%
07:00 +18°C° 0 mm 3 mps 748 mmHg 62%
08:00 +19°C° 0 mm 4 mps 748 mmHg 59%
09:00 +21°C° 0 mm 4 mps 748 mmHg 55%
10:00 +23°C° 0 mm 4 mps 748 mmHg 52%
11:00 +23°C° 0 mm 4 mps 748 mmHg 53%
12:00 +25°C° 0 mm 4 mps 748 mmHg 53%
13:00 +26°C° 0 mm 4 mps 748 mmHg 54%
14:00 +25°C° 0 mm 4 mps 748 mmHg 56%
15:00 +25°C° 0 mm 3 mps 747 mmHg 58%
16:00 +25°C° 0 mm 2 mps 747 mmHg 61%
17:00 +23°C° 0.1 mm 2 mps 747 mmHg 65%
18:00 +21°C° 0.1 mm 2 mps 747 mmHg 69%
19:00 +20°C° 0.1 mm 2 mps 747 mmHg 73%
20:00 +19°C° 0 mm 2 mps 747 mmHg 74%
21:00 +19°C° 0 mm 2 mps 747 mmHg 75%
22:00 +19°C° 0 mm 2 mps 747 mmHg 77%
23:00 +18°C° 0 mm 2 mps 747 mmHg 79%

24 September, Thursday

Time Temperature Precipitation Wind Pressure Humidity
00:00 +18°C° 0 mm 2 mps 747 mmHg 82%
01:00 +18°C° 0 mm 2 mps 747 mmHg 84%
02:00 +17°C° 0 mm 2 mps 747 mmHg 85%
03:00 +17°C° 0 mm 2 mps 748 mmHg 87%
04:00 +17°C° 0 mm 2 mps 748 mmHg 88%
05:00 +17°C° 0.1 mm 2 mps 748 mmHg 87%
06:00 +17°C° 0.1 mm 2 mps 748 mmHg 86%
07:00 +18°C° 0.1 mm 2 mps 748 mmHg 85%
08:00 +19°C° 0 mm 3 mps 749 mmHg 79%
09:00 +20°C° 0 mm 3 mps 749 mmHg 72%
10:00 +22°C° 0 mm 3 mps 749 mmHg 66%
11:00 +24°C° 0 mm 3 mps 749 mmHg 62%
12:00 +25°C° 0 mm 3 mps 749 mmHg 57%
13:00 +26°C° 0 mm 3 mps 749 mmHg 52%
14:00 +26°C° 0 mm 2 mps 749 mmHg 52%
15:00 +26°C° 0 mm 2 mps 749 mmHg 53%
16:00 +26°C° 0 mm 2 mps 749 mmHg 53%
17:00 +24°C° 0 mm 1 mps 749 mmHg 60%
18:00 +22°C° 0 mm 1 mps 749 mmHg 66%
19:00 +21°C° 0 mm 1 mps 749 mmHg 72%
20:00 +19°C° 0.1 mm 2 mps 749 mmHg 74%
21:00 +19°C° 0.1 mm 2 mps 748 mmHg 75%
22:00 +18°C° 0.1 mm 3 mps 748 mmHg 77%
23:00 +18°C° 0 mm 3 mps 747 mmHg 78%
Show more